• In Hungary
  • List of Countries
  • For 7 days
  • Water Temperature
  • Satellite Maps
  • Weather Map
  • News
  • Weather Widgets
  • user-avatar
    Login

    Hourly Weather Lipie

    Today, 16 January, Tuesday

    Time Temperature Precipitation Wind Pressure Humidity
    00:00 -10°C° 0 mm 5 mps 740 mmHg 54%
    01:00 -10°C° 0 mm 5 mps 739 mmHg 55%
    02:00 -10°C° 0 mm 5 mps 738 mmHg 56%
    03:00 -10°C° 0 mm 6 mps 737 mmHg 57%
    04:00 -11°C° 0 mm 7 mps 736 mmHg 58%
    05:00 -11°C° 0 mm 7 mps 736 mmHg 59%
    06:00 -11°C° 0 mm 7 mps 735 mmHg 59%
    07:00 -10°C° 0 mm 6 mps 734 mmHg 60%
    08:00 -9°C° 0 mm 6 mps 733 mmHg 58%
    09:00 -8°C° 0 mm 7 mps 732 mmHg 57%
    10:00 -8°C° 0 mm 7 mps 732 mmHg 55%
    11:00 -7°C° 0 mm 7 mps 731 mmHg 55%
    12:00 -6°C° 0 mm 7 mps 730 mmHg 56%
    13:00 -5°C° 0 mm 6 mps 729 mmHg 58%
    14:00 -5°C° 0 mm 6 mps 728 mmHg 60%
    15:00 -5°C° 0 mm 6 mps 727 mmHg 61%
    16:00 -5°C° 0 mm 6 mps 726 mmHg 63%
    17:00 -5°C° 0 mm 6 mps 726 mmHg 67%
    18:00 -5°C° 0 mm 6 mps 725 mmHg 71%
    19:00 -5°C° 0 mm 5 mps 724 mmHg 75%
    20:00 -5°C° 0.3 mm 5 mps 724 mmHg 78%
    21:00 -4°C° 0.3 mm 5 mps 723 mmHg 82%
    22:00 -4°C° 0.3 mm 5 mps 722 mmHg 85%
    23:00 -2°C° 0.9 mm 5 mps 722 mmHg 85%

    Tomorrow, 17 January, Wednesday

    Time Temperature Precipitation Wind Pressure Humidity
    00:00 -3°C° 0.9 mm 6 mps 721 mmHg 85%
    01:00 -2°C° 0.9 mm 6 mps 721 mmHg 85%
    02:00 -2°C° 0.3 mm 7 mps 721 mmHg 83%
    03:00 -2°C° 0.3 mm 7 mps 721 mmHg 82%
    04:00 -2°C° 0.3 mm 7 mps 721 mmHg 80%
    05:00 -3°C° 0 mm 6 mps 721 mmHg 81%
    06:00 -3°C° 0 mm 6 mps 721 mmHg 82%
    07:00 -4°C° 0 mm 6 mps 721 mmHg 83%
    08:00 -2°C° 0 mm 5 mps 721 mmHg 81%
    09:00 -2°C° 0 mm 5 mps 721 mmHg 80%
    10:00 -1°C° 0 mm 5 mps 722 mmHg 78%
    11:00 -1°C° 0 mm 5 mps 722 mmHg 78%
    12:00 -1°C° 0 mm 4 mps 722 mmHg 78%
    13:00 0°C° 0 mm 4 mps 722 mmHg 77%
    14:00 -1°C° 0 mm 4 mps 722 mmHg 80%
    15:00 0°C° 0 mm 3 mps 723 mmHg 83%
    16:00 -1°C° 0 mm 3 mps 723 mmHg 86%
    17:00 -1°C° 0.1 mm 3 mps 724 mmHg 88%
    18:00 -1°C° 0.1 mm 3 mps 724 mmHg 89%
    19:00 -2°C° 0.1 mm 3 mps 724 mmHg 91%
    20:00 -2°C° 0.1 mm 3 mps 725 mmHg 90%
    21:00 -3°C° 0.1 mm 4 mps 725 mmHg 89%
    22:00 -3°C° 0.1 mm 4 mps 725 mmHg 89%
    23:00 -3°C° 0.1 mm 4 mps 726 mmHg 88%

    Day after tomorrow, 18 January, Thursday

    Time Temperature Precipitation Wind Pressure Humidity
    00:00 -4°C° 0.1 mm 5 mps 726 mmHg 87%
    01:00 -4°C° 0.1 mm 5 mps 727 mmHg 86%
    02:00 -4°C° 0 mm 5 mps 727 mmHg 86%
    03:00 -4°C° 0 mm 5 mps 728 mmHg 85%
    04:00 -5°C° 0 mm 5 mps 728 mmHg 85%
    05:00 -5°C° 0 mm 5 mps 729 mmHg 86%
    06:00 -5°C° 0 mm 5 mps 729 mmHg 86%
    07:00 -5°C° 0 mm 5 mps 730 mmHg 87%
    08:00 -4°C° 0 mm 5 mps 730 mmHg 84%
    09:00 -4°C° 0 mm 5 mps 730 mmHg 82%
    10:00 -2°C° 0 mm 5 mps 730 mmHg 80%
    11:00 -2°C° 0.1 mm 5 mps 730 mmHg 80%
    12:00 -1°C° 0.1 mm 4 mps 730 mmHg 79%
    13:00 -1°C° 0.1 mm 4 mps 730 mmHg 79%
    14:00 -2°C° 0 mm 4 mps 729 mmHg 81%
    15:00 -1°C° 0 mm 3 mps 729 mmHg 83%
    16:00 -1°C° 0 mm 3 mps 728 mmHg 85%
    17:00 -2°C° 0.2 mm 4 mps 727 mmHg 85%
    18:00 -2°C° 0.2 mm 4 mps 726 mmHg 85%
    19:00 -2°C° 0.2 mm 5 mps 725 mmHg 85%
    20:00 -3°C° 0.5 mm 6 mps 724 mmHg 85%
    21:00 -3°C° 0.5 mm 6 mps 723 mmHg 85%
    22:00 -2°C° 0.5 mm 6 mps 722 mmHg 86%
    23:00 -2°C° 0.4 mm 6 mps 721 mmHg 86%

    19 January, Friday

    Time Temperature Precipitation Wind Pressure Humidity
    00:00 -1°C° 0.4 mm 6 mps 721 mmHg 86%
    01:00 -1°C° 0.4 mm 6 mps 720 mmHg 86%
    02:00 -1°C° 0.1 mm 7 mps 720 mmHg 83%
    03:00 -2°C° 0.1 mm 8 mps 720 mmHg 81%
    04:00 -3°C° 0.1 mm 9 mps 720 mmHg 78%
    05:00 -4°C° 0 mm 8 mps 721 mmHg 79%
    06:00 -4°C° 0 mm 8 mps 722 mmHg 80%
    07:00 -4°C° 0 mm 8 mps 723 mmHg 81%
    08:00 -4°C° 0.1 mm 8 mps 724 mmHg 81%
    09:00 -4°C° 0.1 mm 8 mps 725 mmHg 82%
    10:00 -4°C° 0.1 mm 8 mps 726 mmHg 82%
    11:00 -3°C° 0.1 mm 7 mps 727 mmHg 81%
    12:00 -3°C° 0.1 mm 7 mps 727 mmHg 81%
    13:00 -3°C° 0.1 mm 6 mps 728 mmHg 81%
    14:00 -2°C° 0 mm 5 mps 729 mmHg 83%
    15:00 -3°C° 0 mm 4 mps 729 mmHg 84%
    16:00 -2°C° 0 mm 3 mps 730 mmHg 86%
    17:00 -2°C° 0 mm 3 mps 731 mmHg 87%
    18:00 -3°C° 0 mm 2 mps 731 mmHg 88%
    19:00 -3°C° 0 mm 2 mps 732 mmHg 88%
    20:00 -3°C° 0 mm 2 mps 732 mmHg 89%
    21:00 -1°C° 0 mm 1 mps 733 mmHg 89%
    22:00 -2°C° 0 mm 1 mps 733 mmHg 89%
    23:00 -2°C° 0 mm 1 mps 733 mmHg 89%

    20 January, Saturday

    Time Temperature Precipitation Wind Pressure Humidity
    00:00 -2°C° 0 mm 1 mps 734 mmHg 89%
    01:00 -1°C° 0 mm 1 mps 734 mmHg 89%
    02:00 -2°C° 0 mm 1 mps 734 mmHg 89%
    03:00 -2°C° 0 mm 1 mps 733 mmHg 90%
    04:00 -2°C° 0 mm 1 mps 733 mmHg 91%
    05:00 -2°C° 0 mm 1 mps 733 mmHg 91%
    06:00 -2°C° 0 mm 1 mps 733 mmHg 92%
    07:00 -3°C° 0 mm 1 mps 734 mmHg 92%
    08:00 -4°C° 0 mm 2 mps 734 mmHg 91%
    09:00 -3°C° 0 mm 2 mps 734 mmHg 89%
    10:00 -3°C° 0 mm 2 mps 734 mmHg 88%
    11:00 -2°C° 0 mm 2 mps 734 mmHg 87%
    12:00 -2°C° 0 mm 2 mps 734 mmHg 86%
    13:00 +1°C° 0 mm 1 mps 734 mmHg 85%
    14:00 0°C° 0 mm 1 mps 734 mmHg 86%
    15:00 0°C° 0 mm 1 mps 734 mmHg 88%
    16:00 -1°C° 0 mm 1 mps 734 mmHg 89%
    17:00 -1°C° 0 mm 1 mps 734 mmHg 90%
    18:00 -2°C° 0 mm 1 mps 734 mmHg 91%
    19:00 -2°C° 0 mm 1 mps 734 mmHg 92%
    20:00 -2°C° 0 mm 1 mps 734 mmHg 92%
    21:00 -2°C° 0 mm 1 mps 734 mmHg 93%
    22:00 -3°C° 0 mm 1 mps 734 mmHg 93%
    23:00 -3°C° 0 mm 1 mps 734 mmHg 93%

    21 January, Sunday

    Time Temperature Precipitation Wind Pressure Humidity
    00:00 -3°C° 0 mm 1 mps 735 mmHg 93%
    01:00 -3°C° 0 mm 1 mps 735 mmHg 93%
    02:00 -3°C° 0 mm 1 mps 735 mmHg 93%
    03:00 -4°C° 0 mm 1 mps 735 mmHg 93%
    04:00 -4°C° 0 mm 1 mps 735 mmHg 93%
    05:00 -4°C° 0 mm 1 mps 735 mmHg 93%
    06:00 -4°C° 0 mm 1 mps 735 mmHg 93%
    07:00 -6°C° 0 mm 2 mps 735 mmHg 93%
    08:00 -6°C° 0 mm 2 mps 736 mmHg 91%
    09:00 -5°C° 0 mm 2 mps 736 mmHg 89%
    10:00 -5°C° 0 mm 2 mps 736 mmHg 87%
    11:00 -4°C° 0 mm 2 mps 736 mmHg 86%
    12:00 -3°C° 0 mm 2 mps 736 mmHg 85%
    13:00 -3°C° 0 mm 2 mps 736 mmHg 83%
    14:00 -3°C° 0 mm 2 mps 737 mmHg 86%
    15:00 -3°C° 0 mm 2 mps 737 mmHg 88%
    16:00 -4°C° 0 mm 2 mps 737 mmHg 90%
    17:00 -4°C° 0 mm 2 mps 738 mmHg 90%
    18:00 -5°C° 0 mm 3 mps 738 mmHg 90%
    19:00 -5°C° 0 mm 3 mps 739 mmHg 90%
    20:00 -5°C° 0 mm 3 mps 739 mmHg 90%
    21:00 -5°C° 0 mm 3 mps 739 mmHg 89%
    22:00 -5°C° 0 mm 3 mps 739 mmHg 89%
    23:00 -5°C° 0 mm 3 mps 740 mmHg 88%
    Show more